Weather History for Shenandoah, IA

Change the Weather History Date:

Thursday, October 4, 2012

  Actual Average Record
Temperature  
Mean Temperature 57 °F -  
Max Temperature 66 °F 71 °F 91 °F (2005)
Min Temperature 48 °F 45 °F 26 °F (1980)
Degree Days  
Heating Degree Days 8    
Growing Degree Days 7 (Base 50)    
Moisture  
Dew Point 35 °F    
Average Humidity 47    
Maximum Humidity 67    
Minimum Humidity 26    
Precipitation  
Precipitation 0.00 in - - ()
Sea Level Pressure  
Sea Level Pressure 30.19 in    
Wind  
Wind Speed 9 mph (NNW)    
Max Wind Speed 20 mph    
Max Gust Speed 28 mph    
Visibility 10 miles    
Events Rain    
Averages and records for this station are not official NWS values.
T = Trace of Precipitation, MM = Missing Value Source: NWS Daily Summary

Daily Weather History Graph

Daily Weather History Graph

Search for Another Location

Airport:

Trip Planner

Search our weather history database for the weather conditions in past years. The results will help you decide how hot, cold, wet, or windy it might be!

Date:

Astronomy

Oct. 04, 2012 Rise Set
Actual Time 7:21 AM CDT 6:57 PM CDT
Civil Twilight 6:54 AM CDT 7:25 PM CDT
Nautical Twilight 6:22 AM CDT 7:56 PM CDT
Astronomical Twilight 5:50 AM CDT 8:28 PM CDT
Moon 9:32 PM CDT (10/4) 11:41 AM CDT (10/4)
Length of Visible Light 12h 30m
Length of Day
11h 36m
Waning Gibbous, 82% of the Moon is Illuminated
Oct 4
Waning Gibbous
Oct 8
Last Quarter
Oct 15
New
Oct 21
First Quarter
Oct 29
Full

Hourly Weather History & Observations

Time (CDT) Temp. Dew Point Humidity Pressure Visibility Wind Dir Wind Speed Gust Speed Precip Events Conditions
12:15 AM 64.4 °F 42.8 °F 45% 29.93 in 10.0 mi South 8.1 mph - N/A   Scattered Clouds
12:35 AM 66.2 °F 42.8 °F 43% 29.94 in 10.0 mi South 5.8 mph - N/A   Mostly Cloudy
12:55 AM 64.4 °F 44.6 °F 49% 29.93 in 10.0 mi South 3.5 mph - N/A   Scattered Clouds
1:15 AM 64.4 °F 44.6 °F 49% 29.94 in 10.0 mi SW 4.6 mph - N/A   Scattered Clouds
1:35 AM 64.4 °F 44.6 °F 49% 29.96 in 10.0 mi West 3.5 mph - N/A   Clear
1:55 AM 62.6 °F 46.4 °F 55% 29.97 in 10.0 mi SW 3.5 mph - N/A   Scattered Clouds
2:15 AM 62.6 °F 46.4 °F 55% 29.97 in 10.0 mi West 4.6 mph - N/A   Clear
2:35 AM 62.6 °F 46.4 °F 55% 30.00 in 10.0 mi NNW 6.9 mph - N/A   Scattered Clouds
2:55 AM 60.8 °F 41.0 °F 48% 30.02 in 10.0 mi NNW 10.4 mph 21.9 mph N/A   Scattered Clouds
3:15 AM 57.2 °F 41.0 °F 55% 30.04 in 10.0 mi NNW 19.6 mph 26.5 mph N/A   Scattered Clouds
3:35 AM 57.2 °F 41.0 °F 55% 30.03 in 10.0 mi NNW 16.1 mph 27.6 mph N/A   Scattered Clouds
3:55 AM 57.2 °F 41.0 °F 55% 30.05 in 10.0 mi NNW 15.0 mph 23.0 mph N/A   Scattered Clouds
4:15 AM 57.2 °F 41.0 °F 55% 30.06 in 10.0 mi North 16.1 mph 20.7 mph N/A   Scattered Clouds
4:35 AM 55.4 °F 41.0 °F 58% 30.07 in 10.0 mi North 8.1 mph - N/A   Scattered Clouds
4:55 AM 55.4 °F 42.8 °F 63% 30.10 in 10.0 mi NNW 8.1 mph - N/A   Scattered Clouds
5:15 AM 55.4 °F 42.8 °F 63% 30.11 in 10.0 mi NW 8.1 mph - N/A   Clear
5:35 AM 55.4 °F 42.8 °F 63% 30.10 in 10.0 mi NNW 8.1 mph - N/A   Scattered Clouds
5:55 AM 55.4 °F 44.6 °F 67% 30.13 in 10.0 mi NW 6.9 mph - N/A Rain Light Rain
6:15 AM 55.4 °F 42.8 °F 63% 30.13 in 10.0 mi NNW 10.4 mph 18.4 mph N/A   Overcast
6:35 AM 53.6 °F 42.8 °F 67% 30.15 in 10.0 mi NNW 9.2 mph 19.6 mph N/A   Mostly Cloudy
6:55 AM 51.8 °F 41.0 °F 67% 30.13 in 10.0 mi North 11.5 mph 16.1 mph N/A   Scattered Clouds
7:15 AM 51.8 °F 41.0 °F 67% 30.16 in 10.0 mi NNW 8.1 mph - N/A   Scattered Clouds
7:35 AM 51.8 °F 39.2 °F 62% 30.16 in 10.0 mi North 10.4 mph 17.3 mph N/A   Scattered Clouds
7:55 AM 51.8 °F 39.2 °F 62% 30.16 in 10.0 mi North 10.4 mph 18.4 mph N/A   Scattered Clouds
8:15 AM 50.0 °F 39.2 °F 66% 30.15 in 10.0 mi North 17.3 mph 23.0 mph N/A   Clear
8:35 AM 50.0 °F 37.4 °F 62% 30.17 in 10.0 mi North 15.0 mph 21.9 mph N/A   Clear
8:55 AM 51.8 °F 39.2 °F 62% 30.20 in 10.0 mi NW 8.1 mph 16.1 mph N/A   Scattered Clouds
9:15 AM 51.8 °F 37.4 °F 58% 30.22 in 10.0 mi NNW 9.2 mph 17.3 mph N/A   Scattered Clouds
9:35 AM 51.8 °F 37.4 °F 58% 30.25 in 10.0 mi NW 9.2 mph - N/A   Scattered Clouds
9:55 AM 48.2 °F 37.4 °F 66% 30.23 in 10.0 mi North 13.8 mph 21.9 mph N/A Rain Light Rain
10:15 AM 50.0 °F 37.4 °F 62% 30.25 in 10.0 mi NW 10.4 mph - N/A   Clear
10:35 AM 50.0 °F 35.6 °F 58% 30.25 in 10.0 mi North 13.8 mph 18.4 mph N/A   Scattered Clouds
10:55 AM 51.8 °F 35.6 °F 54% 30.26 in 10.0 mi NNW 13.8 mph 21.9 mph N/A   Clear
11:15 AM 51.8 °F 35.6 °F 54% 30.28 in 10.0 mi NNW 8.1 mph 17.3 mph N/A   Scattered Clouds
11:35 AM 55.4 °F 35.6 °F 47% 30.26 in 10.0 mi NNW 15.0 mph 21.9 mph N/A   Scattered Clouds
11:55 AM 55.4 °F 35.6 °F 47% 30.27 in 10.0 mi North 13.8 mph 23.0 mph N/A   Clear
12:15 PM 57.2 °F 33.8 °F 41% 30.26 in 10.0 mi NNW 12.7 mph 19.6 mph N/A   Clear
12:35 PM 57.2 °F 33.8 °F 41% 30.27 in 10.0 mi NW 9.2 mph 19.6 mph N/A   Clear
12:55 PM 57.2 °F 33.8 °F 41% 30.27 in 10.0 mi NNW 12.7 mph 17.3 mph N/A   Clear
1:35 PM 60.8 °F 32.0 °F 34% 30.26 in 10.0 mi NNW 11.5 mph 19.6 mph N/A   Clear
1:55 PM 60.8 °F 32.0 °F 34% 30.26 in 10.0 mi NW 8.1 mph 16.1 mph N/A   Clear
2:15 PM 60.8 °F 32.0 °F 34% 30.25 in 10.0 mi NNW 13.8 mph 19.6 mph N/A   Clear
2:35 PM 59.0 °F 30.2 °F 34% 30.25 in 10.0 mi NNW 13.8 mph 21.9 mph N/A   Clear
2:55 PM 62.6 °F 30.2 °F 30% 30.25 in 10.0 mi NW 13.8 mph 19.6 mph N/A   Clear
3:15 PM 62.6 °F 30.2 °F 30% 30.24 in 10.0 mi NNW 9.2 mph 18.4 mph N/A   Clear
3:35 PM 62.6 °F 28.4 °F 27% 30.24 in 10.0 mi North 16.1 mph 19.6 mph N/A   Clear
3:55 PM 60.8 °F 28.4 °F 29% 30.24 in 10.0 mi NW 9.2 mph - N/A   Clear
4:15 PM 60.8 °F 28.4 °F 29% 30.24 in 10.0 mi NNW 10.4 mph - N/A   Clear
4:35 PM 60.8 °F 28.4 °F 29% 30.24 in 10.0 mi NNW 9.2 mph - N/A   Clear
4:55 PM 62.6 °F 28.4 °F 27% 30.24 in 10.0 mi NNW 9.2 mph 16.1 mph N/A   Clear
5:15 PM 62.6 °F 26.6 °F 26% 30.24 in 10.0 mi North 13.8 mph 19.6 mph N/A   Clear
5:35 PM 60.8 °F 28.4 °F 29% 30.24 in 10.0 mi NNW 10.4 mph - N/A   Clear
5:55 PM 57.2 °F 28.4 °F 33% 30.24 in 10.0 mi North 10.4 mph - N/A   Clear
6:15 PM 57.2 °F 28.4 °F 33% 30.25 in 10.0 mi North 8.1 mph - N/A   Clear
6:35 PM 57.2 °F 28.4 °F 33% 30.25 in 10.0 mi North 11.5 mph - N/A   Clear
6:55 PM 55.4 °F 30.2 °F 38% 30.26 in 10.0 mi NNW 4.6 mph - N/A   Clear
7:15 PM 53.6 °F 30.2 °F 41% 30.27 in 10.0 mi NNW 3.5 mph - N/A   Scattered Clouds
7:35 PM 55.4 °F 30.2 °F 38% 30.28 in 10.0 mi NNW 3.5 mph - N/A   Scattered Clouds
7:55 PM 55.4 °F 30.2 °F 38% 30.28 in 10.0 mi NNW 4.6 mph - N/A   Scattered Clouds
8:15 PM 53.6 °F 30.2 °F 41% 30.26 in 10.0 mi North 5.8 mph - N/A   Scattered Clouds
8:35 PM 53.6 °F 30.2 °F 41% 30.27 in 10.0 mi North 6.9 mph - N/A   Scattered Clouds
8:55 PM 53.6 °F 30.2 °F 41% 30.26 in 10.0 mi North 8.1 mph - N/A   Clear
9:15 PM 51.8 °F 30.2 °F 44% 30.28 in 10.0 mi NNW 5.8 mph - N/A   Scattered Clouds
9:35 PM 51.8 °F 32.0 °F 47% 30.28 in 10.0 mi North 9.2 mph - N/A   Scattered Clouds
9:55 PM 51.8 °F 30.2 °F 44% 30.29 in 10.0 mi North 8.1 mph - N/A   Scattered Clouds
10:15 PM 51.8 °F 30.2 °F 44% 30.28 in 10.0 mi North 6.9 mph - N/A   Scattered Clouds
10:35 PM 51.8 °F 30.2 °F 44% 30.29 in 10.0 mi North 8.1 mph - N/A   Scattered Clouds
10:55 PM 51.8 °F 28.4 °F 41% 30.28 in 10.0 mi North 10.4 mph - N/A   Scattered Clouds
11:15 PM 51.8 °F 28.4 °F 41% 30.31 in 10.0 mi North 8.1 mph - N/A   Scattered Clouds
11:35 PM 51.8 °F 28.4 °F 41% 30.31 in 10.0 mi North 8.1 mph - N/A   Scattered Clouds
11:55 PM 51.8 °F 28.4 °F 41% 30.32 in 10.0 mi North 4.6 mph - N/A   Clear